Change the Weather History Date:

Thursday, December 13, 2012

  Actual Average Record
Temperature  
Mean Temperature 21 °F -  
Max Temperature 30 °F 25 °F 48 °F (1998)
Min Temperature 12 °F 6 °F -21 °F (1985)
Degree Days  
Heating Degree Days 44    
Moisture  
Dew Point 19 °F    
Average Humidity 89    
Maximum Humidity 100    
Minimum Humidity 74    
Precipitation  
Precipitation 0.00 in - - ()
Sea Level Pressure  
Sea Level Pressure 30.00 in    
Wind  
Wind Speed 7 mph (NNE)    
Max Wind Speed 14 mph    
Max Gust Speed -    
Visibility 6 miles    
Events Fog    
Averages and records for this station are not official NWS values.
T = Trace of Precipitation, MM = Missing Value Source: NWS Daily Summary

Daily Weather History Graph

Daily Weather History Graph

Search for Another Location

Airport or City:

Trip Planner

Search our weather history database for the weather conditions in past years. The results will help you decide how hot, cold, wet, or windy it might be!

Date:

Astronomy

Dec. 13, 2012 Rise Set
Actual Time 7:53 AM CST 4:37 PM CST
Civil Twilight 7:19 AM CST 5:11 PM CST
Nautical Twilight 6:42 AM CST 5:49 PM CST
Astronomical Twilight 6:05 AM CST 6:25 PM CST
Moon 8:02 AM CST (12/13) 5:22 PM CST (12/13)
Length of Visible Light 9h 52m
Length of Day
8h 43m
New Moon, 0% of the Moon is Illuminated
Dec 13
New Moon
Dec 19
First Quarter
Dec 28
Full
Jan 4
Last Quarter
Jan 11
New

Hourly Weather History & Observations

Time (CST) Temp. Windchill Dew Point Humidity Pressure Visibility Wind Dir Wind Speed Gust Speed Precip Events Conditions
12:13 AM 21.2 °F 14.9 °F 21.2 °F 100% 29.87 in 10.0 mi East 4.6 mph - N/A   Clear
12:33 AM 21.2 °F 12.6 °F 21.2 °F 100% 29.86 in 10.0 mi NNE 6.9 mph - N/A   Scattered Clouds
12:53 AM 21.2 °F 13.6 °F 21.2 °F 100% 29.87 in 10.0 mi NNE 5.8 mph - N/A   Overcast
1:14 AM 23.0 °F 14.7 °F 21.2 °F 93% 29.86 in 10.0 mi NNE 6.9 mph - N/A   Mostly Cloudy
1:53 AM 23.0 °F 15.8 °F 21.2 °F 93% 29.87 in 10.0 mi NNE 5.8 mph - N/A   Overcast
2:14 AM 23.0 °F 15.8 °F 21.2 °F 93% 29.88 in 10.0 mi NNE 5.8 mph - N/A   Scattered Clouds
2:33 AM 23.0 °F 13.1 °F 21.2 °F 93% 29.87 in 10.0 mi NNE 9.2 mph - N/A   Clear
2:53 AM 21.2 °F 11.7 °F 19.4 °F 93% 29.88 in 10.0 mi NNE 8.1 mph - N/A   Clear
3:14 AM 21.2 °F 10.9 °F 19.4 °F 93% 29.88 in 10.0 mi NNE 9.2 mph - N/A   Clear
3:33 AM 23.0 °F 12.4 °F 19.4 °F 86% 29.88 in 10.0 mi NNE 10.4 mph - N/A   Clear
3:53 AM 21.2 °F 11.7 °F 19.4 °F 93% 29.88 in 10.0 mi NNE 8.1 mph - N/A   Clear
4:14 AM 21.2 °F 11.7 °F 19.4 °F 93% 29.90 in 10.0 mi North 8.1 mph - N/A   Clear
4:33 AM 23.0 °F 13.1 °F 19.4 °F 86% 29.90 in 10.0 mi North 9.2 mph - N/A   Scattered Clouds
4:53 AM 24.8 °F 13.4 °F 21.2 °F 86% 29.90 in 10.0 mi NNE 12.7 mph - N/A   Scattered Clouds
5:14 AM 23.0 °F 12.4 °F 19.4 °F 86% 29.91 in 10.0 mi NNE 10.4 mph - N/A   Clear
5:53 AM 23.0 °F 11.1 °F 19.4 °F 86% 29.92 in 10.0 mi NNE 12.7 mph - N/A   Clear
6:14 AM 23.0 °F 11.1 °F 19.4 °F 86% 29.93 in 7.0 mi NNE 12.7 mph - N/A   Clear
6:33 AM 23.0 °F 10.6 °F 19.4 °F 86% 29.93 in 7.0 mi NNE 13.8 mph - N/A   Clear
6:53 AM 21.2 °F 9.5 °F 19.4 °F 93% 29.95 in 7.0 mi NNE 11.5 mph - N/A   Clear
7:14 AM 21.2 °F 10.1 °F 19.4 °F 93% 29.96 in 7.0 mi North 10.4 mph - N/A   Clear
7:33 AM 21.2 °F 10.1 °F 19.4 °F 93% 29.96 in 5.0 mi North 10.4 mph - N/A   Clear
7:53 AM 21.2 °F 10.1 °F 19.4 °F 93% 29.96 in 5.0 mi NNE 10.4 mph - N/A   Scattered Clouds
8:13 AM 23.0 °F 12.4 °F 21.2 °F 93% 29.96 in 5.0 mi NNE 10.4 mph - N/A   Mostly Cloudy
8:33 AM 24.8 °F 14.6 °F 21.2 °F 86% 29.97 in 5.0 mi NNE 10.4 mph - N/A   Overcast
8:53 AM 24.8 °F 14.6 °F 21.2 °F 86% 29.98 in 5.0 mi NNE 10.4 mph - N/A   Overcast
9:13 AM 26.6 °F 16.8 °F 23.0 °F 86% 29.99 in 7.0 mi NNE 10.4 mph - N/A   Overcast
9:53 AM 26.6 °F 19.1 °F 21.2 °F 80% 30.00 in 5.0 mi NNE 6.9 mph - N/A   Mostly Cloudy
10:13 AM 26.6 °F 17.5 °F 21.2 °F 80% 30.00 in 5.0 mi North 9.2 mph - N/A   Mostly Cloudy
10:33 AM 26.6 °F 19.1 °F 21.2 °F 80% 30.01 in 5.0 mi North 6.9 mph - N/A   Scattered Clouds
10:54 AM 26.6 °F 19.1 °F 21.2 °F 80% 30.02 in 7.0 mi North 6.9 mph - N/A   Scattered Clouds
11:13 AM 26.6 °F 21.2 °F 21.2 °F 80% 30.03 in 7.0 mi North 4.6 mph - N/A   Scattered Clouds
11:33 AM 26.6 °F 19.1 °F 21.2 °F 80% 30.03 in 7.0 mi NNW 6.9 mph - N/A   Scattered Clouds
11:54 AM 28.4 °F 22.2 °F 21.2 °F 74% 30.03 in 7.0 mi NNW 5.8 mph - N/A   Unknown
12:13 PM 28.4 °F 22.2 °F 23.0 °F 80% 30.03 in 7.0 mi NW 5.8 mph - N/A   Scattered Clouds
12:33 PM 30.2 °F 21.9 °F 24.8 °F 80% 30.03 in 7.0 mi NNW 9.2 mph - N/A   Unknown
12:54 PM 28.4 °F 21.2 °F 23.0 °F 80% 30.03 in 7.0 mi NW 6.9 mph - N/A   Unknown
1:13 PM 28.4 °F 22.2 °F 23.0 °F 80% 30.03 in 7.0 mi NW 5.8 mph - N/A   Mostly Cloudy
1:33 PM 28.4 °F 22.2 °F 24.8 °F 86% 30.03 in 7.0 mi NW 5.8 mph - N/A   Overcast
1:54 PM 28.4 °F 22.2 °F 23.0 °F 80% 30.03 in 7.0 mi NW 5.8 mph - N/A   Overcast
2:13 PM 28.4 °F 23.3 °F 23.0 °F 80% 30.04 in 7.0 mi NW 4.6 mph - N/A   Overcast
2:33 PM 28.4 °F 23.3 °F 23.0 °F 80% 30.04 in 7.0 mi NW 4.6 mph - N/A   Scattered Clouds
2:54 PM 28.4 °F 23.3 °F 21.2 °F 74% 30.04 in 7.0 mi NW 4.6 mph - N/A   Clear
3:13 PM 26.6 °F 22.6 °F 21.2 °F 80% 30.04 in 7.0 mi NW 3.5 mph - N/A   Clear
3:33 PM 26.6 °F 20.0 °F 21.2 °F 80% 30.04 in 7.0 mi NW 5.8 mph - N/A   Clear
3:54 PM 24.8 °F - 21.2 °F 86% 30.04 in 7.0 mi Calm Calm - N/A   Clear
4:13 PM 24.8 °F 19.1 °F 19.4 °F 80% 30.04 in 10.0 mi North 4.6 mph - N/A   Clear
4:54 PM 21.2 °F 14.9 °F 17.6 °F 86% 30.05 in 10.0 mi ENE 4.6 mph - N/A   Clear
5:33 PM 19.4 °F - 17.6 °F 93% 30.07 in 7.0 mi Calm Calm - N/A   Clear
6:13 PM 19.4 °F - 17.6 °F 93% 30.08 in 7.0 mi Calm Calm - N/A   Clear
6:54 PM 19.4 °F - 17.6 °F 93% 30.08 in 4.0 mi Calm Calm - N/A   Clear
7:13 PM 17.6 °F 10.7 °F 17.6 °F 100% 30.08 in 3.0 mi ENE 4.6 mph - N/A   Clear
7:34 PM 17.6 °F - 15.8 °F 93% 30.08 in 4.0 mi Calm Calm - N/A   Clear
7:53 PM 15.8 °F 8.6 °F 15.8 °F 100% 30.08 in 4.0 mi NE 4.6 mph - N/A   Clear
8:13 PM 12.2 °F - 10.4 °F 92% 30.09 in 0.5 mi Calm Calm - N/A Fog Light Freezing Fog
8:34 PM 12.2 °F - 12.2 °F 100% 30.09 in 1.8 mi Calm Calm - N/A   Mostly Cloudy
8:53 PM 17.6 °F - 17.6 °F 100% 30.08 in 3.0 mi Calm Calm - N/A   Clear
9:13 PM 17.6 °F - 15.8 °F 93% 30.09 in 3.0 mi Calm Calm - N/A   Clear
9:34 PM 17.6 °F - 15.8 °F 93% 30.09 in 1.5 mi Calm Calm - N/A   Clear
9:53 PM 14.0 °F - 12.2 °F 93% 30.10 in 0.2 mi Calm Calm - N/A Fog Light Freezing Fog
10:13 PM 14.0 °F 8.2 °F 12.2 °F 93% 30.09 in 1.5 mi NE 3.5 mph - N/A   Mostly Cloudy
10:34 PM 14.0 °F 5.1 °F 12.2 °F 93% 30.09 in 0.5 mi ENE 5.8 mph - N/A Fog Light Freezing Fog
10:53 PM 12.2 °F 2.9 °F 10.4 °F 92% 30.09 in 0.2 mi ENE 5.8 mph - N/A Fog Light Freezing Fog
11:13 PM 15.8 °F 7.2 °F 15.8 °F 100% 30.09 in 2.5 mi East 5.8 mph - N/A   Scattered Clouds
11:53 PM 12.2 °F 2.9 °F 10.4 °F 92% 30.09 in 3.0 mi ENE 5.8 mph - N/A   Clear